Miscellaneous Local Product
Issued by NWS Hastings, NE

Home | Current Version | Previous Version | Graphics & Text | Print | Product List | Glossary On
Versions: 1 2 3 4 5 6 7 8 9 10 11 12 13 14 15 16 17 18 19 20 21 22 23 24 25 26 27 28 29 30 31 32 33 34 35 36 37 38 39 40 41 42 43 44 45 46 47 48 49 50
000
AXUS43 KGID 210202
MISGRI

GID CWA HOURLY WEATHER ROUNDUP
NATIONAL WEATHER SERVICE HASTINGS NE
900 PM CDT MON MAR 20 2017

NOTE: "FAIR" INDICATES FEW OR NO CLOUDS BELOW 12,000 FEET WITH NO
SIGNIFICANT WEATHER AND/OR OBSTRUCTIONS TO VISIBILITY.

...SOUTH CENTRAL NEBRASKA...

CITY           SKY/WX    TMP DP  RH WIND       PRES   REMARKS
GRAND ISLAND   PTCLDY    46  29  51 NE8       30.15R
HASTINGS       PTCLDY    50  28  42 NE6       30.13R
KEARNEY        CLEAR     48  25  40 NE9       30.14R
ORD            CLOUDY    53  25  33 NE10      30.16R
YORK           CLEAR     48  27  43 NE7       30.14R
AURORA         CLOUDY    49  27  41 NE9       30.14R
LEXINGTON      CLOUDY    51  29  42 NE7       30.14R
HOLDREGE       PTCLDY    48  26  42 NE8       30.12R
HEBRON         CLEAR     55  31  39 NE7       30.11R

...NEBRASKA PANHANDLE...

CITY           SKY/WX    TMP DP  RH WIND       PRES   REMARKS
CHADRON        CLOUDY    52  26  36 NE10      30.16F
ALLIANCE       LGT RAIN  47  38  71 E12       30.15F
SCOTTSBLUFF    CLOUDY    52  37  56 E14       30.11F
SIDNEY         CLOUDY    54  31  41 NE12      30.16R

...WESTERN AND NORTH CENTRAL NEBRASKA...

CITY           SKY/WX    TMP DP  RH WIND       PRES   REMARKS
VALENTINE      MOCLDY    51  28  41 NE10      30.21R
AINSWORTH      CLOUDY    46  31  55 NE7       30.21R
ONEILL         CLOUDY    48  33  57 NE7       30.21R
BROKEN BOW     MOCLDY    54  26  34 NE12      30.15R
IMPERIAL       MOCLDY    58  32  37 E15       30.12R
NORTH PLATTE   PTCLDY    48  27  44 NE8       30.14R
MCCOOK         CLEAR     54  33  45 NE12      30.11R

...EASTERN NEBRASKA...

CITY           SKY/WX    TMP DP  RH WIND       PRES   REMARKS
NORFOLK        CLOUDY    52  33  48 NE14      30.18R
SO SIOUX CITY  CLOUDY    51  32  48 NE12      30.19R
TEKAMAH        PTCLDY    54  35  48 NE18      30.16R
COLUMBUS       PTCLDY    52  28  40 N10       30.17R
ALBION         CLOUDY    53  29  39 NE9       30.17R
OMAHA EPPLEY   MOCLDY    57  33  40 NE12      30.13R
OFFUTT AFB     PTCLDY    54  29  38 NE8       30.13R
MILLARD        PTCLDY    61  34  36 NE7       30.13R
LINCOLN        CLOUDY    52  29  41 NE10      30.13R
NEBRASKA CITY  CLEAR     56  22  26 NE10      30.11R
BEATRICE       CLOUDY    56  32  41 NE8       30.11R
FALLS CITY     PTCLDY    59  40  49 NE8       30.08R

...NORTHERN KANSAS...

CITY           SKY/WX    TMP DP  RH WIND       PRES   REMARKS
GOODLAND       CLOUDY    52  37  56 E10       30.08R
HILL CITY      CLOUDY    54  38  54 NE9       30.08R
NORTON         CLEAR     55  28  35 NE12      30.09R
PHILLIPSBURG   CLEAR     57  32  38 NE10G16   30.09R
HAYS             N/A     57  43  59 NE9       30.06R
RUSSELL        PTCLDY    60  44  55 NE8       30.04R
CONCORDIA      PTCLDY    58  42  55 NE8       30.07R
SALINA         PTCLDY    68  45  43 NE13      30.03R
TOPEKA         CLEAR     65  46  50 NE9       30.02R



USA.gov is the U.S. government's official web portal to all federal, state and local government web resources and services.